Miscellaneous Local Product
Issued by NWS North Platte, NE

Home | Current Version | Previous Version | Text Only | Print | Product List | Glossary On
Versions: 1 2 3 4 5 6 7 8 9 10 11 12 13 14 15 16 17 18 19 20 21 22 23 24 25 26 27 28 29 30 31 32 33 34 35 36 37 38 39 40 41 42 43 44 45 46 47 48 49 50
000
AXUS43 KLBF 311710
MISLBF


WESTERN AND NORTH CENTRAL NEBRASKA HOURLY WEATHER ROUNDUP
NATIONAL WEATHER SERVICE NORTH PLATTE NE
1100 AM CST SAT JAN 31 2015

***STATIONS NOT REPORTING VARIABLES SUCH AS SKY/WEATHER OR
PRESSURE ARE PROVIDED BY THE NEBRASKA DEPARTMENT OF
ROADS...RAWS...AND APRS NETWORKS...AND ARE NOT UNDER
NATIONAL WEATHER SERVICE QUALITY CONTROL***

...OBSERVATIONS IN AND NEAR THE EASTERN PANHANDLE OF NEBRASKA...

CITY           SKY/WX    TMP DP  RH WIND       PRES   REMARKS
PINE RIDGE     CLOUDY    31  25  78 E12       29.98S WCI  22
CHADRON        CLOUDY    30  25  81 NE5       29.97F WCI  25
ALLIANCE       LGT SNOW  31  28  89 N8        29.92F FOG     WCI  23
SIDNEY         LGT SNOW  33  31  92 N6        29.91F FOG     WCI  28
WHITECLAY        N/A     30  23  74 CALM        N/A
LISCO            N/A     34  31  90 W3          N/A
$$

...OBSERVATIONS IN NORTH CENTRAL NEBRASKA...

CITY           SKY/WX    TMP DP  RH WIND       PRES   REMARKS
VALENTINE      FOG       26  25  96 NE13      30.02S VSB 3/4 WCI  15
THEDFORD       LGT SNOW  34  33  98 CALM      29.96F VSB 3/4
AINSWORTH      CLOUDY    29  27  92 NE12      30.01S WCI  20
O`NEILL        CLOUDY    31  29  94 NE9       30.04S WCI  23
ORD            CLOUDY    35  30  82 SE6       30.01S WCI  30
BROKEN BOW     CLOUDY    34  31  88 S9        29.98F WCI  27
BROWNLEE         N/A     30  29  96 NE12        N/A  WCI  20
VALENTINE NWR    N/A     29  28  95 NE9         N/A  WCI  21
SPRINGVIEW       N/A     28  25  88 NE7         N/A  WCI  21
BREWSTER         N/A     36  34  90 CALM        N/A
ROSE             N/A     34  34 100 N5          N/A  WCI  30
NEWPORT          N/A     30  30 100 N13         N/A  WCI  20
SARGENT          N/A     34  30  86 CALM        N/A
COMSTOCK         N/A     37  35  94 S8          N/A  WCI  31
CHAMBERS         N/A     37  33  86 CALM        N/A
EWING            N/A     36  34  91 S5          N/A  WCI  32
$$

...OBSERVATIONS IN SOUTHWEST NEBRASKA AND FAR NORTHEAST COLORADO...

CITY           SKY/WX    TMP DP  RH WIND       PRES   REMARKS
WRAY           CLOUDY   N/A N/A N/A N6        29.90F
IMPERIAL       FOG       33  32  96 E6        29.92S VSB 1/4 WCI  28
OGALLALA       FOG       33  33  99 E5        29.92F VSB 1/2 WCI  29
NORTH PLATTE   CLOUDY    34  31  88 SE7       29.96F WCI  28
MCCOOK         FOG       35  33  92 SE6       29.95F VSB 3/4 WCI  30
LEXINGTON      CLOUDY    33  33  96 SE8       29.98F FOG     WCI  27
BRADY            N/A     32  30  92 CALM        N/A
GOTHENBURG       N/A     33  31  93 SE3         N/A
CALLAWAY         N/A     32  31  96 SE3         N/A
$$

...NORTH PLATTE AREA...

CITY           SKY/WX    TMP DP  RH WIND       PRES   REMARKS
AIRPORT        CLOUDY    34  31  88 SE7       29.96F WCI  28
DOWNTOWN         N/A     33  30  90 CALM        N/A
$$

...SOME WEATHER OBSERVATIONS FROM AROUND THE REGION...

CITY           SKY/WX    TMP DP  RH WIND       PRES   REMARKS
DENVER         CLOUDY    34  26  72 NW7       29.90R WCI  28
LARAMIE        CLOUDY    29  25  85 N5        29.86F WCI  24
CHEYENNE       CLOUDY    31  25  78 N7        29.87F WCI  24
SCOTTSBLUFF    LGT SNOW  33  29  85 NE3       29.93F FOG
RAPID CITY     CLOUDY    27  26  96 SE8       30.02S FOG     WCI  19
PIERRE         CLOUDY    22  20  92 E20       30.14S FOG     WCI   7
WINNER         FRZ RAIN  26  24  92 NE16      30.08F VSB<1/4 WCI  14
SIOUX FALLS    CLOUDY    26  24  92 NE15      30.13F FOG     WCI  14
OMAHA          LGT SNOW  34  33  96 S10       30.15S FOG     WCI  26
GRAND ISLAND   LGT SNOW  33  31  92 S9        30.05F FOG     WCI  25
KANSAS CITY    LGT RAIN  37  36  96 SE10      30.20F FOG     WCI  30
WICHITA        LGT RAIN  39  36  89 S14       30.13S FOG     WCI  31
HAYS           CLOUDY    34  27  75 S10       30.01F WCI  26
LIBERAL        CLOUDY    37  34  87 S20       29.98F WCI  27
GOODLAND       CLOUDY    38  34  85 NW3       29.89R
$$



USA.gov is the U.S. government's official web portal to all federal, state and local government web resources and services.